[[{"header":{"parameterUnit":"m.s-1","parameterCategory":1,"la1":30.2991,"la2":30.254,"lo1":-89.0895,"lo2":-89.0444,"dy":0.0017,"dx":0.0017,"nx":28,"ny":28,"refTime":"2025-03-01T09:00:00:Z","depth":0,"parameterNumber":2,"parameterNumberName":"U-component_of_WINDS"},"data":[0,0,0,0,0,0,0,0,0,0,0,0,0,0,0,0,0,0,0,0,0,0,0,0,0,0,0,0,0,0,0,0,0,0,0,0,0,0,0,0,0,0,0,0,0,0,0,0,0,0,0,0,0,0,0,0,0,0,0.5296,0.5296,0,0.5289,0.5289,0.5289,0.5273,0.5272,0.5272,0.5272,0.5265,0.5265,0.5265,0,0,0,0,0,0,0,0,0,0,0,0,0,0.5294,0.5294,0.5296,0.5296,0.5295,0.5289,0.5289,0.5289,0.5273,0.5272,0.5272,0.5271,0.5265,0.5265,0.5265,0,0,0,0,0,0,0,0,0,0,0,0,0,0.5292,0.5294,0.5296,0.5287,0.5286,0.5289,0.5289,0.5289,0.5273,0.5272,0.5272,0.5271,0.5265,0.5265,0.5265,0.5277,0,0,0.5266,0.5266,0,0,0,0,0,0,0,0,0.5292,0.5292,0.5288,0.5287,0.5286,0.5281,0.5286,0.5285,0.5273,0.5278,0.5272,0.5271,0.5271,0.527,0.527,0.5277,0.5277,0.5266,0.5266,0.5266,0.5266,0,0,0,0,0,0,0,0.5292,0.5292,0.5293,0.5288,0.5287,0.5283,0.5282,0.5286,0.5277,0.5277,0.5276,0.5275,0.527,0.527,0.527,0.5276,0.5266,0.5266,0.5266,0.5266,0.5294,0.5294,0,0,0,0,0,0,0.5293,0.5292,0.5293,0.5293,0.5288,0.5283,0.5282,0.5283,0.5277,0.5276,0.5276,0.5275,0.527,0.527,0.527,0.5284,0.5266,0.5266,0.5266,0.5293,0.5294,0.5295,0,0,0,0,0,0,0.5294,0.5294,0.5294,0.5292,0.5292,0.5284,0.5285,0.5284,0.5284,0.5276,0.5275,0.5278,0.527,0.527,0.5276,0.5284,0.5266,0.5267,0.5292,0.5293,0.5294,0.5313,0,0,0,0,0,0,0.5294,0.5294,0.5298,0.5292,0.5292,0.53,0.5286,0.5284,0.5284,0.5282,0.5277,0.5276,0.5269,0.5276,0.5276,0.5284,0.5267,0.5292,0.5293,0.5294,0.5312,0.5314,0.5317,0,0,0,0,0,0.5294,0.5303,0.5298,0.5299,0.5297,0.53,0.53,0.5292,0.5285,0.5289,0.5285,0.5276,0.5283,0.5276,0.5277,0.5285,0.5291,0.5293,0.5294,0.5311,0.5314,0.5317,0,0,0,0,0,0,0.531,0.5302,0.5297,0.5305,0.5303,0.5297,0.5303,0.5296,0.5296,0.5294,0.5284,0.5283,0.5291,0.5288,0.5281,0.5297,0.5286,0.5287,0.5298,0.5301,0.5304,0.5305,0.5267,0,0,0,0,0,0.5314,0.5317,0.5311,0.5319,0.5318,0.5311,0.5311,0.5306,0.5303,0.5302,0.5298,0.5296,0.5298,0.53,0.5301,0.5311,0.531,0.5317,0.532,0.5322,0.5323,0.533,0.5333,0.5299,0.5299,0.5299,0,0,0.5324,0.532,0.5322,0.5322,0.532,0.5323,0.531,0.5314,0.5316,0.5303,0.5309,0.5306,0.5303,0.5312,0.5316,0.531,0.5332,0.5323,0.5325,0.5326,0.5331,0.5335,0.5338,0.53,0.53,0.53,0,0,0.5343,0.534,0.5347,0.5345,0.5343,0.5338,0.534,0.5335,0.5332,0.5338,0.5329,0.5331,0.5334,0.5333,0.5333,0.5353,0.5346,0.5354,0.5367,0.5374,0.5377,0.5379,0.5387,0.539,0.5355,0.5355,0.5355,0,0.5355,0.536,0.5351,0.5356,0.5357,0.5345,0.5352,0.5351,0.5349,0.535,0.5343,0.5348,0.5345,0.5354,0.5359,0.5359,0.5361,0.5354,0.5377,0.5379,0.5381,0.5389,0.5392,0.5356,0.5356,0.5356,0.5356,0,0.5375,0.5379,0.5385,0.5383,0.5384,0.539,0.5383,0.5385,0.538,0.5376,0.5382,0.5379,0.538,0.5381,0.5375,0.539,0.5386,0.5379,0.5367,0.5386,0.5393,0.5395,0.5358,0.5357,0.5357,0.5357,0,0,0.5404,0.5399,0.5401,0.5401,0.5398,0.54,0.5406,0.5407,0.541,0.5408,0.5414,0.5417,0.541,0.541,0.5404,0.541,0.5427,0.5401,0.5401,0.5407,0.5444,0.545,0.5454,0.5422,0.5422,0.5423,0.5444,0,0.5423,0.5433,0.5426,0.5437,0.5441,0.543,0.5435,0.5434,0.5431,0.5433,0.5429,0.5432,0.5423,0.5423,0.5428,0.5424,0.5434,0.5422,0.5427,0.5427,0.5429,0.5457,0.5463,0.5484,0.5447,0.5447,0.5448,0,0.5446,0.5447,0.5458,0.5455,0.5457,0.5461,0.5462,0.5465,0.5464,0.5461,0.5461,0.5454,0.546,0.5449,0.5458,0.545,0.5451,0.545,0.5451,0.5451,0.5439,0.5459,0.549,0.5493,0.5452,0.5451,0.5451,0,0.5467,0.5471,0.5479,0.5478,0.5475,0.5479,0.5477,0.5475,0.5477,0.5478,0.5479,0.548,0.5481,0.5483,0.5477,0.5469,0.5487,0.5475,0.5485,0.5485,0.5489,0.5489,0.5522,0.5489,0.5489,0.5489,0.5489,0,0.5489,0.5497,0.5488,0.5493,0.5502,0.5494,0.5503,0.55,0.5499,0.5503,0.5494,0.5498,0.549,0.5493,0.5489,0.5497,0.5497,0.5496,0.5494,0.5497,0.5497,0.5498,0.5497,0.549,0.549,0.549,0.549,0,0.5514,0.5508,0.5516,0.5513,0.5512,0.5519,0.5515,0.552,0.5516,0.5522,0.5523,0.5517,0.5521,0.5515,0.5518,0.5515,0.5527,0.5523,0.5528,0.5527,0.5538,0.5537,0.5573,0.5577,0.5541,0.5542,0.5542,0,0.5529,0.5534,0.5532,0.5534,0.5534,0.5537,0.5539,0.5532,0.5534,0.5534,0.5539,0.5542,0.5544,0.5551,0.5547,0.555,0.5547,0.5559,0.5547,0.555,0.5548,0.5548,0.5549,0.5562,0.5562,0.5562,0.5563,0,0.5556,0.5553,0.5556,0.5558,0.556,0.5562,0.5562,0.5565,0.5557,0.5561,0.5565,0.5567,0.557,0.5574,0.5576,0.5575,0.5568,0.5566,0.5569,0.5572,0.5575,0.5574,0.5535,0.5566,0.5565,0.5565,0.5565,0.5565,0.5576,0.5582,0.5581,0.5585,0.5584,0.5586,0.559,0.5587,0.5591,0.5593,0.5589,0.5595,0.5594,0.5596,0.5596,0.56,0.5595,0.5599,0.56,0.5601,0.5603,0.5574,0.5601,0.56,0.56,0.56,0.56,0,0.5604,0.5603,0.5606,0.5608,0.5611,0.5605,0.5605,0.5609,0.5614,0.5614,0.5617,0.5622,0.5626,0.5623,0.5626,0.5631,0.5628,0.5632,0.5632,0.5632,0.5607,0.5605,0.5634,0.5634,0.5634,0.5634,0.5634,0.5634,0.5618,0.5627,0.5624,0.5633,0.5632,0.5638,0.5639,0.5641,0.5641,0.5647,0.5651,0.5649,0.5648,0.5651,0.5655,0.5654,0.5656,0.5661,0.5659,0.5637,0.5633,0.563,0.5628,0.5662,0.5662,0.5684,0.5684,0.5684]},{"header":{"parameterUnit":"m.s-1","parameterCategory":1,"la1":30.2991,"la2":30.254,"lo1":-89.0895,"lo2":-89.0444,"dy":0.0017,"dx":0.0017,"nx":28,"ny":28,"refTime":"2025-03-01T09:00:00:Z","depth":0,"parameterNumber":3,"parameterNumberName":"V-component_of_WINDS"},"data":[0,0,0,0,0,0,0,0,0,0,0,0,0,0,0,0,0,0,0,0,0,0,0,0,0,0,0,0,0,0,0,0,0,0,0,0,0,0,0,0,0,0,0,0,0,0,0,0,0,0,0,0,0,0,0,0,0,0,-1.1489,-1.1488,0,-1.1439,-1.1439,-1.1438,-1.1393,-1.1392,-1.1392,-1.1391,-1.1341,-1.134,-1.1339,0,0,0,0,0,0,0,0,0,0,0,0,0,-1.1543,-1.1543,-1.1489,-1.1488,-1.1487,-1.1439,-1.1439,-1.1438,-1.1393,-1.1392,-1.1392,-1.1391,-1.1341,-1.134,-1.1339,0,0,0,0,0,0,0,0,0,0,0,0,0,-1.1509,-1.1542,-1.1489,-1.1459,-1.1456,-1.144,-1.1439,-1.1438,-1.1393,-1.1392,-1.1392,-1.1391,-1.1341,-1.134,-1.1339,-1.1348,0,0,-1.1335,-1.1335,0,0,0,0,0,0,0,0,-1.1511,-1.1507,-1.1464,-1.1461,-1.1458,-1.1421,-1.1439,-1.1408,-1.1393,-1.1417,-1.1391,-1.139,-1.1368,-1.1365,-1.1357,-1.1346,-1.1343,-1.1335,-1.1334,-1.1334,-1.1333,0,0,0,0,0,0,0,-1.1514,-1.1509,-1.1469,-1.1464,-1.146,-1.1448,-1.1443,-1.1433,-1.1398,-1.1415,-1.1412,-1.1406,-1.1366,-1.1359,-1.1356,-1.1343,-1.1335,-1.1334,-1.1333,-1.1333,-1.1335,-1.1336,0,0,0,0,0,0,-1.1521,-1.1512,-1.1471,-1.1468,-1.1483,-1.1448,-1.1442,-1.1434,-1.1398,-1.1392,-1.1407,-1.1404,-1.1361,-1.1357,-1.1354,-1.1361,-1.1334,-1.1333,-1.1332,-1.1334,-1.1335,-1.1336,0,0,0,0,0,0,-1.1522,-1.1518,-1.1473,-1.1489,-1.1482,-1.1448,-1.144,-1.1433,-1.1426,-1.1392,-1.1385,-1.1406,-1.136,-1.1356,-1.135,-1.1359,-1.1332,-1.1331,-1.1333,-1.1334,-1.1335,-1.1377,0,0,0,0,0,0,-1.1524,-1.1518,-1.1521,-1.1489,-1.1481,-1.1469,-1.144,-1.1433,-1.1424,-1.142,-1.1389,-1.1383,-1.1359,-1.1352,-1.1348,-1.1357,-1.133,-1.1332,-1.1334,-1.1335,-1.1374,-1.1379,-1.1383,0,0,0,0,0,-1.1526,-1.1535,-1.1522,-1.1517,-1.1485,-1.147,-1.1465,-1.1438,-1.1425,-1.1427,-1.1406,-1.1384,-1.1359,-1.1351,-1.1347,-1.1355,-1.1331,-1.1333,-1.1335,-1.1372,-1.1378,-1.1383,0,0,0,0,0,0,-1.1569,-1.153,-1.1515,-1.1514,-1.1496,-1.1462,-1.1465,-1.1445,-1.143,-1.1427,-1.1394,-1.1387,-1.1385,-1.137,-1.1362,-1.1362,-1.1342,-1.1343,-1.1372,-1.1377,-1.1381,-1.1385,-1.1329,0,0,0,0,0,-1.1579,-1.157,-1.1536,-1.1539,-1.153,-1.1499,-1.1492,-1.1472,-1.1452,-1.1444,-1.1422,-1.1403,-1.1391,-1.1383,-1.137,-1.1372,-1.1364,-1.1376,-1.138,-1.1384,-1.1385,-1.1384,-1.1389,-1.1342,-1.1342,-1.1342,0,0,-1.1598,-1.1575,-1.1572,-1.1547,-1.153,-1.1522,-1.1493,-1.1486,-1.1479,-1.1443,-1.1435,-1.1419,-1.1395,-1.1393,-1.1391,-1.138,-1.1396,-1.1386,-1.139,-1.1388,-1.1387,-1.1391,-1.1395,-1.1343,-1.1343,-1.1343,0,0,-1.1628,-1.1611,-1.1611,-1.1595,-1.157,-1.1549,-1.155,-1.1519,-1.1507,-1.1499,-1.1471,-1.1463,-1.1443,-1.1427,-1.1416,-1.1441,-1.1421,-1.1438,-1.1461,-1.1461,-1.1465,-1.1468,-1.1476,-1.1479,-1.1439,-1.144,-1.144,0,-1.1655,-1.1642,-1.1613,-1.1607,-1.1596,-1.1564,-1.1563,-1.1549,-1.1521,-1.1515,-1.1503,-1.1476,-1.1458,-1.1452,-1.1458,-1.1451,-1.1449,-1.1441,-1.1466,-1.1469,-1.1472,-1.1479,-1.1482,-1.1442,-1.1441,-1.1441,-1.1441,0,-1.1676,-1.1667,-1.1669,-1.1644,-1.1633,-1.163,-1.1601,-1.1594,-1.1576,-1.1556,-1.1548,-1.1526,-1.1507,-1.1504,-1.1486,-1.1495,-1.1489,-1.1473,-1.1452,-1.1479,-1.1485,-1.1488,-1.1445,-1.1444,-1.1443,-1.1443,0,0,-1.1731,-1.169,-1.1691,-1.1679,-1.1649,-1.1642,-1.1637,-1.1619,-1.1614,-1.1596,-1.1591,-1.1574,-1.1559,-1.1547,-1.1527,-1.1527,-1.1547,-1.151,-1.1509,-1.1517,-1.1555,-1.1567,-1.1571,-1.1534,-1.1534,-1.1534,-1.1556,0,-1.1756,-1.1746,-1.172,-1.1717,-1.1708,-1.1677,-1.1673,-1.1654,-1.1636,-1.1626,-1.1606,-1.1595,-1.1575,-1.1568,-1.1566,-1.1545,-1.1554,-1.1543,-1.1528,-1.1528,-1.1534,-1.1574,-1.1587,-1.1609,-1.1559,-1.1559,-1.1559,0,-1.1784,-1.1768,-1.1765,-1.1736,-1.1731,-1.1728,-1.1709,-1.1699,-1.1678,-1.1665,-1.1651,-1.1629,-1.1622,-1.1604,-1.1594,-1.1587,-1.1579,-1.1568,-1.1568,-1.1565,-1.1545,-1.1571,-1.1615,-1.1618,-1.1563,-1.1563,-1.1563,0,-1.1824,-1.1802,-1.1797,-1.1788,-1.1754,-1.1752,-1.1738,-1.1715,-1.1706,-1.1689,-1.1683,-1.1666,-1.1657,-1.1644,-1.1618,-1.1607,-1.1611,-1.159,-1.1599,-1.16,-1.16,-1.1601,-1.1643,-1.1597,-1.1597,-1.1597,-1.1597,0,-1.1854,-1.1853,-1.1814,-1.1811,-1.1809,-1.1779,-1.1778,-1.1761,-1.1741,-1.1734,-1.1706,-1.17,-1.1666,-1.1656,-1.1636,-1.163,-1.1626,-1.1615,-1.1609,-1.1617,-1.1618,-1.1611,-1.1608,-1.1598,-1.1598,-1.1598,-1.1597,0,-1.1898,-1.1872,-1.1865,-1.1833,-1.1825,-1.1825,-1.1798,-1.1794,-1.1774,-1.1765,-1.1762,-1.1731,-1.1717,-1.169,-1.167,-1.1656,-1.1655,-1.1645,-1.1662,-1.1658,-1.1668,-1.1668,-1.1707,-1.171,-1.1663,-1.1664,-1.1664,0,-1.1919,-1.1917,-1.1886,-1.1879,-1.1866,-1.1855,-1.1846,-1.1817,-1.1808,-1.1783,-1.1781,-1.1766,-1.1752,-1.1732,-1.1708,-1.1691,-1.1681,-1.1696,-1.1678,-1.1686,-1.168,-1.168,-1.168,-1.17,-1.17,-1.1701,-1.1701,0,-1.1958,-1.1945,-1.1932,-1.1915,-1.1905,-1.189,-1.1873,-1.1869,-1.1836,-1.1827,-1.1813,-1.1802,-1.1781,-1.1766,-1.1746,-1.1731,-1.1711,-1.1707,-1.1708,-1.1715,-1.1725,-1.1719,-1.1672,-1.1706,-1.1706,-1.1705,-1.1705,-1.1705,-1.199,-1.1987,-1.1965,-1.1951,-1.1936,-1.1921,-1.1915,-1.1895,-1.1883,-1.1863,-1.1847,-1.1834,-1.1812,-1.1784,-1.177,-1.176,-1.175,-1.1751,-1.1752,-1.1752,-1.1755,-1.1727,-1.1756,-1.1756,-1.1756,-1.1756,-1.1756,0,-1.2027,-1.2011,-1.1999,-1.1977,-1.1967,-1.1948,-1.1929,-1.1921,-1.1911,-1.1892,-1.1879,-1.1863,-1.1848,-1.1823,-1.1806,-1.1802,-1.1792,-1.1798,-1.1798,-1.1795,-1.1766,-1.1766,-1.1807,-1.1807,-1.1807,-1.1807,-1.1807,-1.1807,-1.2045,-1.2039,-1.2024,-1.2009,-1.1993,-1.1981,-1.1971,-1.1957,-1.1942,-1.1925,-1.1913,-1.1897,-1.1875,-1.1856,-1.1842,-1.1835,-1.1829,-1.1839,-1.1829,-1.1802,-1.1797,-1.1792,-1.1792,-1.1838,-1.1838,-1.1859,-1.1859,-1.1859]}]]